FW4518 Weather Reports


Display with metric or nautical units.
time (UTC)temp
F
wind
direction
speed
MPH
gust
MPH
rain 1hr
in
rain 24hr
in
rain mn
in
humidity
%
barometer
mb
20260902203708 56 80 9.0 17.0 0.01 0.05 0.05 86 1010.0
20260902202708 56 60 11.0 17.0 0.02 0.04 0.04 83 1010.1
20260902201708 56 128 8.0 15.0 0.03 0.04 0.04 87 1010.1
20260902200708 56 74 6.0 9.0 0.04 0.04 0.04 87 1010.0
20260902195708 55 165 8.0 11.0 0.04 0.04 0.04 88 1010.2
20260902194708 55 172 8.0 12.0 0.04 0.04 0.04 87 1010.3
20260902193709 55 56 8.0 13.0 0.04 0.04 0.04 88 1010.3
20260902192809 56 105 10.0 13.0 0.02 0.02 0.02 85 1010.3
20260902191708 56 90 8.0 13.0 0.01 0.01 0.01 83 1010.2
20260902190709 58 72 6.0 10.0 0.00 0.00 0.00 79 1010.0
20260902185708 59 122 6.0 10.0 0.00 0.00 0.00 73 1010.0
20260902184729 60 151 7.0 11.0 0.00 0.00 0.00 70 1009.8
20260902183709 61 130 10.0 15.0 0.00 0.00 0.00 62 1009.8
20260902182708 61 96 11.0 18.0 0.00 0.00 0.00 62 1009.7
20260902181728 61 114 8.0 12.0 0.00 0.00 0.00 63 1009.6
20260902180709 61 105 10.0 14.0 0.00 0.00 0.00 64 1009.7
20260902175708 61 118 10.0 16.0 0.00 0.00 0.00 63 1009.7
20260902174709 61 108 10.0 16.0 0.00 0.00 0.00 63 1009.7
20260902173708 61 122 9.0 15.0 0.00 0.00 0.00 63 1009.7
20260902172708 61 82 10.0 16.0 0.00 0.00 0.00 63 1009.8
20260902171709 61 67 12.0 18.0 0.00 0.00 0.00 63 1009.7
20260902170709 63 125 10.0 14.0 0.00 0.00 0.00 62 1009.6
20260902165728 62 120 9.0 15.0 0.00 0.00 0.00 64 1009.6
20260902164710 62 72 10.0 15.0 0.00 0.00 0.00 64 1009.7
20260902163708 61 64 8.0 12.0 0.00 0.00 0.00 67 1009.7
20260902162728 61 70 10.0 16.0 0.00 0.00 0.00 67 1009.8
20260902161709 61 44 9.0 14.0 0.00 0.00 0.00 67 1009.8
20260902160709 61 63 9.0 15.0 0.00 0.00 0.00 68 1009.9
20260902155852 61 50 9.0 13.0 0.00 0.00 0.00 69 1009.9
20260902154708 60 74 6.0 10.0 0.00 0.00 0.00 71 1010.0
20260902153709 59 67 5.0 9.0 0.00 0.00 0.00 73 1010.1
20260902152709 58 124 4.0 9.0 0.00 0.00 0.00 77 1010.4
20260902151711 56 122 4.0 7.0 0.00 0.00 0.00 80 1010.6
20260902150708 55 154 3.0 5.0 0.00 0.00 0.00 83 1010.6
20260902145748 55 83 5.0 7.0 0.00 0.00 0.00 84 1010.7
20260902144712 54 136 3.0 5.0 0.00 0.00 0.00 85 1010.7
20260902143709 55 176 4.0 7.0 0.00 0.00 0.00 83 1010.8
20260902142709 55 71 2.0 4.0 0.00 0.00 0.00 83 1010.8
20260902141709 54 161 1.0 4.0 0.00 0.00 0.00 85 1010.8
20260902140708 52 181 1.0 4.0 0.00 0.00 0.00 90 1010.9
20260902135708 51 0.0 0.0 0.00 0.00 0.00 92 1010.9
20260902134709 51 0.0 0.0 0.00 0.00 0.00 91 1011.0
20260902133729 51 0.0 0.0 0.00 0.00 0.00 91 1010.9
20260902132709 51 0.0 0.0 0.00 0.00 0.00 92 1011.0
20260902131709 51 201 0.0 2.0 0.00 0.00 0.00 93 1011.3
20260902130709 50 0.0 1.0 0.00 0.00 0.00 93 1011.4
20260902125729 50 0.0 1.0 0.00 0.00 0.00 93 1011.5
20260902124709 50 200 0.0 2.0 0.00 0.00 0.00 93 1011.5
20260902123709 50 219 0.0 2.0 0.00 0.00 0.00 92 1011.5
20260902122749 50 0.0 0.0 0.00 0.00 0.00 92 1011.5
20260902121709 50 0.0 0.0 0.00 0.00 0.00 93 1011.6
20260902120709 49 0.0 1.0 0.00 0.00 0.00 94 1011.7
20260902115709 49 197 3.0 6.0 0.00 0.00 0.00 95 1012.0
20260902114709 49 209 2.0 3.0 0.00 0.00 0.00 94 1011.9
20260902113709 50 0.0 1.0 0.00 0.00 0.00 89 1011.8
20260902112709 51 0.0 0.0 0.00 0.00 0.00 89 1011.7
20260902111709 51 0.0 0.0 0.00 0.00 0.00 91 1011.8
20260902110709 51 0.0 0.0 0.00 0.00 0.00 88 1012.0
20260902105709 50 0.0 0.0 0.00 0.00 0.00 91 1012.1
20260902104710 49 0.0 0.0 0.00 0.00 0.00 90 1012.2
20260902103709 49 213 0.0 2.0 0.00 0.00 0.00 93 1012.2
20260902102709 48 0.0 0.0 0.00 0.00 0.00 93 1012.3
20260902101709 47 0.0 0.0 0.00 0.00 0.00 95 1012.2
20260902100709 47 0.0 0.0 0.00 0.00 0.00 95 1012.2
20260902095709 47 0.0 0.0 0.00 0.00 0.00 94 1012.1
20260902094709 48 0.0 0.0 0.00 0.00 0.00 92 1012.0
20260902093729 49 0.0 0.0 0.00 0.00 0.00 93 1012.1
20260902092709 49 0.0 0.0 0.00 0.00 0.00 90 1012.3
20260902091709 50 0.0 0.0 0.00 0.00 0.00 90 1012.3
20260902090709 50 0.0 0.0 0.00 0.00 0.00 88 1012.4
20260902085709 51 0.0 0.0 0.00 0.00 0.00 85 1012.5
20260902084709 52 0.0 0.0 0.00 0.00 0.00 84 1012.5
20260902083709 53 0.0 0.0 0.00 0.00 0.00 84 1012.4
20260902082709 54 0.0 1.0 0.00 0.00 0.00 81 1012.3
20260902081709 55 0.0 0.0 0.00 0.00 0.00 80 1012.2
20260902080709 56 0.0 0.0 0.00 0.00 0.00 79 1012.2
20260902075709 56 358 2.0 4.0 0.00 0.00 0.00 79 1012.0
20260902074709 56 348 2.0 6.0 0.00 0.00 0.00 78 1012.0
20260902073709 56 0.0 2.0 0.00 0.00 0.00 77 1012.0
20260902072709 57 1 2.0 5.0 0.00 0.00 0.00 77 1012.0
20260902071710 56 355 2.0 6.0 0.00 0.00 0.00 78 1012.0
20260902070710 57 332 1.0 4.0 0.00 0.00 0.00 77 1012.1
20260902065729 57 353 2.0 6.0 0.00 0.00 0.00 76 1012.1
20260902064709 57 351 3.0 7.0 0.00 0.00 0.00 75 1012.1
20260902063729 57 340 2.0 6.0 0.00 0.00 0.00 75 1012.1
20260902062709 58 286 1.0 5.0 0.00 0.00 0.00 74 1012.2
20260902061709 58 299 1.0 6.0 0.00 0.00 0.00 73 1012.2
20260902060709 59 162 1.0 5.0 0.00 0.00 0.00 72 1012.2
20260902055710 59 9 1.0 3.0 0.00 0.00 0.00 71 1012.2
20260902054729 59 354 1.0 4.0 0.00 0.00 0.00 70 1012.2
20260902053710 59 327 2.0 6.0 0.00 0.00 0.00 69 1012.3
20260902052709 59 6 3.0 10.0 0.00 0.00 0.00 69 1012.3
20260902051710 60 359 3.0 11.0 0.00 0.00 0.00 68 1012.2
20260902050709 60 2 2.0 7.0 0.00 0.00 0.00 68 1012.1
20260902045709 60 26 3.0 7.0 0.00 0.00 0.00 68 1012.2
20260902044710 60 27 3.0 7.0 0.00 0.00 0.00 67 1011.9
20260902043709 60 99 5.0 8.0 0.00 0.00 0.00 67 1011.8
20260902042709 60 342 5.0 11.0 0.00 0.00 0.00 67 1011.6
20260902041709 61 17 5.0 10.0 0.00 0.00 0.00 67 1011.4
20260902040709 61 37 4.0 8.0 0.00 0.00 0.00 67 1011.4
20260902035730 61 22 3.0 8.0 0.00 0.00 0.00 67 1011.2
20260902034709 61 275 4.0 9.0 0.00 0.00 0.00 67 1010.9
20260902033729 62 200 2.0 7.0 0.00 0.00 0.00 67 1010.8
20260902032709 62 259 4.0 10.0 0.00 0.00 0.00 66 1010.6
20260902031710 62 342 2.0 8.0 0.00 0.00 0.00 66 1010.5
20260902030710 63 288 4.0 9.0 0.00 0.00 0.00 65 1010.3
20260902025710 63 16 6.0 16.0 0.00 0.00 0.00 64 1010.2
20260902024710 64 347 4.0 7.0 0.00 0.00 0.00 62 1010.1
20260902023709 64 331 3.0 8.0 0.00 0.00 0.00 61 1009.9
20260902022709 65 151 4.0 10.0 0.00 0.00 0.00 59 1009.8
20260902021710 65 96 6.0 13.0 0.00 0.00 0.00 58 1009.6
20260902020710 66 89 4.0 8.0 0.00 0.00 0.00 57 1009.6
20260902015710 67 189 5.0 9.0 0.00 0.00 0.00 56 1009.6
20260902014730 67 227 5.0 10.0 0.00 0.00 0.00 56 1009.6
20260902013710 68 310 4.0 10.0 0.00 0.00 0.00 55 1009.4
20260902012730 68 262 4.0 10.0 0.00 0.00 0.00 56 1009.3
20260902011730 69 213 6.0 13.0 0.00 0.00 0.00 54 1009.1
20260902010709 69 297 4.0 11.0 0.00 0.00 0.00 53 1009.0
20260902005710 70 196 4.0 11.0 0.00 0.00 0.00 52 1008.7
20260902004710 71 214 6.0 14.0 0.00 0.00 0.00 51 1008.8
20260902003709 71 147 6.0 13.0 0.00 0.00 0.00 51 1008.7
20260902002731 71 257 6.0 11.0 0.00 0.00 0.00 50 1008.6
20260902001710 73 329 6.0 12.0 0.00 0.00 0.00 47 1008.5
20260902000710 73 146 6.0 12.0 0.00 0.00 0.00 46 1008.4
20260901235710 75 198 5.0 11.0 0.00 0.00 0.00 44 1008.4
20260901234710 75 213 5.0 10.0 0.00 0.00 0.00 44 1008.5
20260901233710 76 177 6.0 12.0 0.00 0.00 0.00 43 1008.4
20260901232710 77 207 9.0 18.0 0.00 0.00 0.00 42 1008.5
20260901231710 77 139 7.0 13.0 0.00 0.00 0.00 41 1008.4
20260901230710 76 135 5.0 12.0 0.00 0.00 0.00 42 1008.5
20260901225710 76 228 7.0 13.0 0.00 0.00 0.00 42 1008.5
20260901224710 77 216 7.0 13.0 0.00 0.00 0.00 40 1008.4
20260901223730 77 204 5.0 11.0 0.00 0.00 0.00 39 1008.3
20260901222710 79 304 6.0 14.0 0.00 0.00 0.00 38 1008.2
20260901221730 80 14 4.0 11.0 0.00 0.00 0.00 35 1008.1
20260901220711 79 329 4.0 11.0 0.00 0.00 0.00 36 1008.1
20260901215710 82 209 3.0 8.0 0.00 0.00 0.00 34 1008.1
20260901214710 82 12 5.0 10.0 0.00 0.00 0.00 34 1008.0
20260901213710 79 11 3.0 9.0 0.00 0.00 0.00 36 1008.2
20260901212710 78 311 3.0 9.0 0.00 0.00 0.00 36 1008.2
20260901211730 80 49 2.0 10.0 0.00 0.00 0.00 35 1008.3
20260901210730 81 354 5.0 11.0 0.00 0.00 0.00 35 1008.3
20260901205710 80 5 5.0 11.0 0.00 0.00 0.00 36 1008.5
20260901204710 81 327 3.0 8.0 0.00 0.00 0.00 35 1008.7